Weather History for Caribou, ME

Change the Weather History Date:

Saturday, February 2, 2013

  Actual Average Record
Temperature  
Mean Temperature 3 °F 11 °F  
Max Temperature 10 °F 20 °F 49 °F (1976)
Min Temperature -4 °F 1 °F -32 °F (1962)
Degree Days  
Heating Degree Days 62 54  
Month to date heating degree days 116 109  
Since 1 July heating degree days 4942 5403  
Cooling Degree Days 0 0  
Month to date cooling degree days 0 0  
Year to date cooling degree days 0 0  
Moisture  
Dew Point -8 °F    
Average Humidity 58    
Maximum Humidity 75    
Minimum Humidity 41    
Precipitation  
Precipitation T in 0.08 in 2.10 in (2003)
Month to date precipitation T 0.16  
Year to date precipitation 2.39 2.87  
Snow  
Snow T in 0.90 in 20.80 in (2003)
Month to date snowfall T 1.7  
Since 1 July snowfall 43.2 62.0  
Snow Depth 1.00 in    
Sea Level Pressure  
Sea Level Pressure 30.07 in    
Wind  
Wind Speed 6 mph (WNW)    
Max Wind Speed 15 mph    
Max Gust Speed 18 mph    
Visibility 9 miles    
Events Snow    
T = Trace of Precipitation, MM = Missing Value Source: NWS Daily Summary

Daily Weather History Graph

Daily Weather History Graph

Search for Another Location

Airport:

Trip Planner

Search our weather history database for the weather conditions in past years. The results will help you decide how hot, cold, wet, or windy it might be!

Date:

Astronomy

Feb. 02, 2013 Rise Set
Actual Time 6:55 AM EST 4:37 PM EST
Civil Twilight 6:22 AM EST 5:09 PM EST
Nautical Twilight 5:46 AM EST 5:45 PM EST
Astronomical Twilight 5:10 AM EST 6:21 PM EST
Moon No Moon Rise 9:34 AM EST (2/2)
Length of Visible Light 10h 46m
Length of Day
9h 42m
Waning Gibbous, 60% of the Moon is Illuminated
Feb 2
Waning Gibbous
Feb 3
Last Quarter
Feb 10
New
Feb 17
First Quarter
Feb 25
Full

Hourly Weather History & Observations

Time (EST) Temp. Windchill Dew Point Humidity Pressure Visibility Wind Dir Wind Speed Gust Speed Precip Events Conditions
12:54 AM 1.9 °F -14.7 °F -6.0 °F 69% 29.95 in 10.0 mi NNW 11.5 mph 18.4 mph N/A   Overcast
1:54 AM 1.0 °F -15.8 °F -8.0 °F 66% 29.98 in 10.0 mi North 11.5 mph - N/A   Overcast
2:13 AM 1.4 °F -14.5 °F -7.6 °F 66% 29.93 in 10.0 mi NNW 10.4 mph - N/A   Overcast
2:54 AM -0.0 °F -14.2 °F -9.0 °F 66% 29.99 in 10.0 mi North 8.1 mph - N/A   Overcast
3:54 AM -0.9 °F -19.1 °F -9.9 °F 66% 30.02 in 10.0 mi NNW 12.7 mph - N/A   Overcast
4:54 AM -2.0 °F -17.7 °F -9.9 °F 69% 30.04 in 10.0 mi NW 9.2 mph - N/A   Overcast
5:54 AM -2.9 °F -16.5 °F -11.0 °F 68% 30.06 in 10.0 mi NNW 6.9 mph - N/A   Overcast
7:54 AM -4.0 °F -17.8 °F -11.9 °F 69% 30.11 in 5.0 mi NNW 6.9 mph - N/A   Haze
8:41 AM -2.2 °F - -11.2 °F 66% 30.06 in 10.0 mi Calm Calm - N/A   Scattered Clouds
8:54 AM -2.9 °F - -11.9 °F 65% 30.13 in 10.0 mi Calm Calm - N/A   Clear
9:54 AM 1.0 °F -6.7 °F -9.9 °F 60% 30.12 in 10.0 mi NNE 3.5 mph - N/A   Partly Cloudy
10:54 AM 1.9 °F -9.2 °F -9.0 °F 60% 30.12 in 10.0 mi WSW 5.8 mph - N/A   Partly Cloudy
11:54 AM 5.0 °F -9.1 °F -8.0 °F 55% 30.08 in 10.0 mi West 9.2 mph - N/A   Scattered Clouds
12:54 PM 7.0 °F -4.5 °F -9.9 °F 46% 30.06 in 10.0 mi SW 6.9 mph - N/A   Clear
1:54 PM 9.0 °F -4.2 °F -9.9 °F 42% 30.05 in 10.0 mi SSW 9.2 mph - N/A   Scattered Clouds
2:54 PM 10.0 °F -2.9 °F -9.0 °F 42% 30.06 in 10.0 mi West 9.2 mph - N/A   Clear
3:54 PM 9.0 °F -5.1 °F -9.0 °F 44% 30.07 in 10.0 mi SSW 10.4 mph - N/A   Clear
4:54 PM 7.0 °F -4.5 °F -8.0 °F 51% 30.09 in 10.0 mi SW 6.9 mph - N/A   Clear
5:54 PM 6.1 °F -0.9 °F -8.0 °F 53% 30.10 in 10.0 mi SSW 3.5 mph - N/A   Clear
6:54 PM 5.0 °F -2.1 °F -7.1 °F 58% 30.10 in 10.0 mi SW 3.5 mph - N/A   Clear
7:54 PM 5.0 °F - -7.1 °F 58% 30.12 in 10.0 mi Calm Calm - N/A   Clear
8:54 PM 5.0 °F - -6.0 °F 61% 30.12 in 10.0 mi Calm Calm - N/A   Mostly Cloudy
9:54 PM 5.0 °F - -4.0 °F 66% 30.12 in 6.0 mi Calm Calm - 0.00 in Snow Light Snow
10:54 PM 5.0 °F - -0.0 °F 80% 30.12 in 5.0 mi Calm Calm - 0.00 in   Haze
11:47 PM 6.8 °F - -0.4 °F 72% 30.05 in 2.5 mi Calm Calm - 0.00 in Snow Light Snow
11:54 PM 6.1 °F - -0.9 °F 73% 30.11 in 3.0 mi Calm Calm - 0.00 in Snow Light Snow